XUM5746 RKSS-RKNY

Flight info

Callsign XUM5746
Flight time 0h 41m
Altitude 21000
Route EGOBA2Q EGOBA Y697 BIKSI BIKSI2H
Aircraft AT76/M-SDFGIRY/S

Departure

Time 2026-05-07 20:44
Airport Gimpo International Airport (RKSS)

Arrival

Time 2026-05-07 21:25
Airport Yangyang International Airport (RKNY)
Time Latitude Longitude Altitude Speed Heading
2026-05-07 20:28 37.55167 126.80732 47 ft 0 kts 45°
2026-05-07 20:38 37.55154 126.80713 46 ft 4 kts 77°
2026-05-07 20:38 37.55158 126.80685 41 ft 3 kts 132°
2026-05-07 20:38 37.55164 126.80677 47 ft 0 kts 135°
2026-05-07 20:41 37.55153 126.80683 43 ft 4 kts 168°
2026-05-07 20:42 37.55120 126.80668 47 ft 6 kts 213°
2026-05-07 20:42 37.55080 126.80637 47 ft 6 kts 180°
2026-05-07 20:42 37.55038 126.80677 46 ft 9 kts 135°
2026-05-07 20:42 37.54990 126.80737 46 ft 11 kts 135°
2026-05-07 20:43 37.54934 126.80807 46 ft 12 kts 136°
2026-05-07 20:43 37.54865 126.80797 45 ft 11 kts 223°
2026-05-07 20:43 37.54812 126.80730 46 ft 10 kts 232°
2026-05-07 20:43 37.54821 126.80658 47 ft 9 kts 306°
2026-05-07 20:44 37.55031 126.80387 47 ft 77 kts 315°
2026-05-07 20:44 37.55553 126.79732 46 ft 131 kts 317°
2026-05-07 20:44 37.56245 126.78858 374 ft 142 kts 312°
2026-05-07 20:44 37.56880 126.77942 979 ft 141 kts 310°
2026-05-07 20:45 37.57490 126.77027 1730 ft 129 kts 311°
2026-05-07 20:45 37.58099 126.76118 2050 ft 144 kts 316°
2026-05-07 20:45 37.58797 126.75267 2600 ft 136 kts 319°
2026-05-07 20:45 37.59469 126.74467 3104 ft 130 kts 319°
2026-05-07 20:46 37.60111 126.73687 3572 ft 126 kts 318°
2026-05-07 20:46 37.60721 126.72906 4022 ft 123 kts 317°
2026-05-07 20:46 37.61308 126.72129 4465 ft 121 kts 317°
2026-05-07 20:46 37.61885 126.71360 4926 ft 119 kts 317°
2026-05-07 20:47 37.62446 126.70612 5344 ft 118 kts 316°
2026-05-07 20:47 37.63045 126.69792 5501 ft 138 kts 313°
2026-05-07 20:47 37.63272 126.68539 5729 ft 170 kts 264°
2026-05-07 20:47 37.62505 126.67285 6072 ft 190 kts 233°
2026-05-07 20:48 37.61516 126.66156 6469 ft 192 kts 234°
2026-05-07 20:48 37.60528 126.65024 6869 ft 192 kts 234°
2026-05-07 20:48 37.59551 126.63875 7267 ft 191 kts 235°
2026-05-07 20:48 37.58615 126.62710 7662 ft 190 kts 237°
2026-05-07 20:49 37.57703 126.61510 8066 ft 189 kts 239°
2026-05-07 20:49 37.56802 126.60292 8473 ft 189 kts 239°
2026-05-07 20:49 37.55710 126.59321 8834 ft 209 kts 206°
2026-05-07 20:49 37.54230 126.59038 9159 ft 218 kts 192°
2026-05-07 20:50 37.52699 126.58973 9533 ft 221 kts 189°
2026-05-07 20:50 37.51158 126.58969 9893 ft 222 kts 188°
2026-05-07 20:50 37.49613 126.58967 10222 ft 222 kts 189°
2026-05-07 20:50 37.48078 126.59143 10526 ft 232 kts 166°
2026-05-07 20:51 37.46647 126.60148 10813 ft 238 kts 146°
2026-05-07 20:51 37.45380 126.61513 11125 ft 241 kts 138°
2026-05-07 20:51 37.44184 126.62993 11426 ft 242 kts 136°
2026-05-07 20:51 37.42987 126.64497 11750 ft 243 kts 137°
2026-05-07 20:52 37.41884 126.66073 12039 ft 244 kts 117°
2026-05-07 20:52 37.41371 126.68087 12272 ft 242 kts 96°
2026-05-07 20:52 37.41199 126.70181 12568 ft 239 kts 85°
2026-05-07 20:52 37.41220 126.72273 12850 ft 239 kts 81°
2026-05-07 20:53 37.41294 126.74370 13129 ft 241 kts 81°
2026-05-07 20:53 37.41363 126.76483 13425 ft 243 kts 82°
2026-05-07 20:53 37.41395 126.78620 13701 ft 245 kts 84°
2026-05-07 20:53 37.41405 126.80745 13939 ft 247 kts 84°
2026-05-07 20:54 37.41411 126.82919 14177 ft 249 kts 84°
2026-05-07 20:54 37.41418 126.85103 14404 ft 250 kts 84°
2026-05-07 20:54 37.41425 126.87310 14652 ft 252 kts 84°
2026-05-07 20:54 37.41435 126.89521 14890 ft 254 kts 84°
2026-05-07 20:55 37.41451 126.91729 15108 ft 255 kts 85°
2026-05-07 20:55 37.41546 126.93958 15365 ft 254 kts 77°
2026-05-07 20:55 37.41854 126.96153 15587 ft 254 kts 71°
2026-05-07 20:55 37.42261 126.98316 15769 ft 255 kts 70°
2026-05-07 20:56 37.42680 127.00493 15983 ft 256 kts 70°
2026-05-07 20:56 37.43077 127.02692 16198 ft 258 kts 71°
2026-05-07 20:56 37.43441 127.04882 16420 ft 260 kts 72°
2026-05-07 20:56 37.43810 127.07128 16612 ft 262 kts 72°
2026-05-07 20:57 37.44180 127.09382 16854 ft 262 kts 72°
2026-05-07 20:57 37.44550 127.11640 17029 ft 264 kts 73°
2026-05-07 20:57 37.44920 127.13913 17231 ft 266 kts 73°
2026-05-07 20:57 37.45291 127.16180 17420 ft 268 kts 73°
2026-05-07 20:58 37.45669 127.18494 17638 ft 269 kts 73°
2026-05-07 20:58 37.45919 127.20029 17767 ft 270 kts 73°
2026-05-07 20:58 37.46297 127.22354 17936 ft 271 kts 73°
2026-05-07 20:58 37.46677 127.24689 18065 ft 273 kts 73°
2026-05-07 20:59 37.47059 127.27040 18205 ft 274 kts 74°
2026-05-07 20:59 37.47436 127.29378 18341 ft 275 kts 75°
2026-05-07 20:59 37.47817 127.31752 18473 ft 277 kts 75°
2026-05-07 20:59 37.48205 127.34143 18625 ft 278 kts 74°
2026-05-07 21:00 37.48597 127.36504 18768 ft 280 kts 75°
2026-05-07 21:00 37.48990 127.38915 18896 ft 281 kts 75°
2026-05-07 21:00 37.49362 127.41345 19054 ft 283 kts 76°
2026-05-07 21:00 37.49745 127.43783 19213 ft 284 kts 76°
2026-05-07 21:01 37.50137 127.46236 19344 ft 286 kts 76°
2026-05-07 21:01 37.50526 127.48667 19481 ft 287 kts 76°
2026-05-07 21:01 37.50924 127.51141 19620 ft 288 kts 76°
2026-05-07 21:01 37.51321 127.53625 19756 ft 290 kts 76°
2026-05-07 21:02 37.51721 127.56121 19850 ft 292 kts 76°
2026-05-07 21:02 37.52125 127.58628 19963 ft 293 kts 76°
2026-05-07 21:02 37.52526 127.61150 20058 ft 294 kts 77°
2026-05-07 21:02 37.52929 127.63676 20186 ft 294 kts 76°
2026-05-07 21:03 37.53335 127.66209 20294 ft 296 kts 76°
2026-05-07 21:03 37.53734 127.68761 20386 ft 297 kts 78°
2026-05-07 21:03 37.54128 127.71324 20495 ft 298 kts 77°
2026-05-07 21:03 37.54529 127.73865 20598 ft 299 kts 77°
2026-05-07 21:04 37.54937 127.76443 20689 ft 301 kts 78°
2026-05-07 21:04 37.55346 127.79033 20814 ft 301 kts 78°
2026-05-07 21:04 37.55756 127.81640 20890 ft 305 kts 78°
2026-05-07 21:04 37.56170 127.84287 20926 ft 310 kts 78°
2026-05-07 21:05 37.56589 127.86971 20938 ft 314 kts 78°
2026-05-07 21:05 37.57027 127.89769 20358 ft 340 kts 78°
2026-05-07 21:05 37.57497 127.92797 19621 ft 364 kts 78°
2026-05-07 21:05 37.57976 127.95947 19290 ft 368 kts 78°
2026-05-07 21:06 37.58457 127.99147 18528 ft 375 kts 78°
2026-05-07 21:06 37.58941 128.02372 17605 ft 368 kts 77°
2026-05-07 21:06 37.59442 128.05536 16713 ft 367 kts 76°
2026-05-07 21:06 37.59926 128.08648 16236 ft 354 kts 76°
2026-05-07 21:07 37.60395 128.11653 15736 ft 344 kts 76°
2026-05-07 21:07 37.60850 128.14576 15216 ft 335 kts 76°
2026-05-07 21:07 37.61285 128.17396 14752 ft 329 kts 76°
2026-05-07 21:07 37.61713 128.20205 14293 ft 323 kts 76°
2026-05-07 21:08 37.62126 128.22965 13795 ft 317 kts 76°
2026-05-07 21:08 37.62533 128.25675 13307 ft 312 kts 76°
2026-05-07 21:08 37.62927 128.28351 12800 ft 308 kts 76°
2026-05-07 21:08 37.63312 128.30986 12333 ft 303 kts 76°
2026-05-07 21:09 37.63687 128.33590 11836 ft 300 kts 76°
2026-05-07 21:09 37.64049 128.36167 11336 ft 296 kts 76°
2026-05-07 21:09 37.64400 128.38690 10834 ft 293 kts 76°
2026-05-07 21:09 37.64745 128.41211 10386 ft 290 kts 76°
2026-05-07 21:10 37.65086 128.43707 9926 ft 286 kts 76°
2026-05-07 21:10 37.65422 128.46165 9431 ft 282 kts 76°
2026-05-07 21:10 37.65744 128.48605 8888 ft 280 kts 76°
2026-05-07 21:10 37.66059 128.51018 8377 ft 277 kts 75°
2026-05-07 21:11 37.66359 128.53383 7878 ft 275 kts 76°
2026-05-07 21:11 37.66649 128.55696 7851 ft 261 kts 76°
2026-05-07 21:11 37.67224 128.60223 7893 ft 264 kts 76°
2026-05-07 21:12 37.67509 128.62528 7890 ft 267 kts 76°
2026-05-07 21:12 37.67808 128.64863 7904 ft 272 kts 75°
2026-05-07 21:12 37.68126 128.67236 7912 ft 277 kts 76°
2026-05-07 21:12 37.68574 128.69589 7890 ft 272 kts 59°
2026-05-07 21:13 37.69753 128.71338 7881 ft 255 kts 25°
2026-05-07 21:13 37.71370 128.71956 7878 ft 236 kts 355°
2026-05-07 21:13 37.72984 128.72018 7876 ft 235 kts 356°
2026-05-07 21:13 37.74627 128.72199 7889 ft 239 kts
2026-05-07 21:14 37.76277 128.72589 7898 ft 244 kts
2026-05-07 21:14 37.77928 128.73183 7871 ft 248 kts 11°
2026-05-07 21:14 37.79544 128.73934 7882 ft 251 kts 15°
2026-05-07 21:14 37.81151 128.74830 7860 ft 252 kts 19°
2026-05-07 21:15 37.82695 128.75917 7880 ft 256 kts 26°
2026-05-07 21:15 37.84093 128.77289 7868 ft 250 kts 34°
2026-05-07 21:15 37.85348 128.78768 7869 ft 244 kts 37°
2026-05-07 21:15 37.86559 128.80242 7817 ft 239 kts 37°
2026-05-07 21:16 37.87741 128.81676 7710 ft 238 kts 37°
2026-05-07 21:16 37.88977 128.83169 7128 ft 249 kts 37°
2026-05-07 21:16 37.90234 128.84588 6549 ft 226 kts 25°
2026-05-07 21:16 37.91641 128.85013 5970 ft 199 kts 347°
2026-05-07 21:17 37.92759 128.84219 5380 ft 183 kts 310°
2026-05-07 21:17 37.93520 128.82971 4792 ft 177 kts 309°
2026-05-07 21:17 37.94504 128.82145 4205 ft 178 kts 347°
2026-05-07 21:17 37.95732 128.82588 3616 ft 201 kts 31°
2026-05-07 21:18 37.96704 128.83971 3199 ft 214 kts 49°
2026-05-07 21:18 37.97124 128.85773 3020 ft 222 kts 90°
2026-05-07 21:18 37.96619 128.87549 2944 ft 210 kts 131°
2026-05-07 21:18 37.95478 128.88471 2900 ft 185 kts 176°
2026-05-07 21:19 37.94325 128.88229 2881 ft 158 kts 224°
2026-05-07 21:19 37.93696 128.87200 2877 ft 146 kts 246°
2026-05-07 21:19 37.93206 128.86099 2869 ft 142 kts 252°
2026-05-07 21:19 37.93059 128.84908 2869 ft 136 kts 268°
2026-05-07 21:20 37.92931 128.83717 2863 ft 136 kts 265°
2026-05-07 21:20 37.92778 128.82530 2856 ft 136 kts 265°
2026-05-07 21:20 37.92631 128.81368 2861 ft 133 kts 268°
2026-05-07 21:20 37.93004 128.80364 2873 ft 135 kts 316°
2026-05-07 21:21 37.93747 128.79631 2868 ft 136 kts 314°
2026-05-07 21:21 37.94477 128.78848 2870 ft 138 kts 314°
2026-05-07 21:21 37.95238 128.78056 2773 ft 147 kts 315°
2026-05-07 21:21 37.96050 128.77243 2592 ft 148 kts 316°
2026-05-07 21:22 37.96852 128.76453 2409 ft 145 kts 314°
2026-05-07 21:22 37.97631 128.75659 2210 ft 142 kts 313°
2026-05-07 21:22 37.98371 128.74854 2045 ft 144 kts 313°
2026-05-07 21:22 37.99156 128.74070 1829 ft 140 kts 315°
2026-05-07 21:23 37.99890 128.73328 1629 ft 128 kts 316°
2026-05-07 21:23 38.00537 128.72663 1472 ft 111 kts 314°
2026-05-07 21:23 38.01122 128.72079 1352 ft 105 kts 312°
2026-05-07 21:23 38.01662 128.71493 1174 ft 99 kts 312°
2026-05-07 21:24 38.02187 128.70930 1019 ft 98 kts 314°
2026-05-07 21:24 38.02732 128.70362 875 ft 106 kts 315°
2026-05-07 21:24 38.03339 128.69746 765 ft 117 kts 319°
2026-05-07 21:24 38.03984 128.69111 607 ft 116 kts 320°
2026-05-07 21:25 38.04614 128.68483 465 ft 117 kts 320°
2026-05-07 21:25 38.05241 128.67820 295 ft 116 kts 319°
2026-05-07 21:25 38.05840 128.67201 235 ft 90 kts 321°
2026-05-07 21:25 38.06033 128.67003 237 ft 37 kts 320°
2026-05-07 21:26 38.06170 128.66865 238 ft 10 kts 323°
2026-05-07 21:26 38.06184 128.66795 235 ft 8 kts 251°
2026-05-07 21:26 38.06149 128.66729 236 ft 10 kts 231°
2026-05-07 21:26 38.06107 128.66663 234 ft 10 kts 231°
2026-05-07 21:27 38.06065 128.66598 234 ft 9 kts 231°
2026-05-07 21:27 38.06025 128.66534 234 ft 9 kts 232°
2026-05-07 21:27 38.05984 128.66472 236 ft 9 kts 220°
2026-05-07 21:27 38.05925 128.66430 234 ft 10 kts 223°
2026-05-07 21:28 38.05906 128.66397 234 ft 1 kts 234°
2026-05-07 21:28 38.05900 128.66386 234 ft 0 kts 233°
2026-05-07 21:29 38.05900 128.66387 234 ft 0 kts 233°
2026-05-07 21:30 38.05901 128.66387 234 ft 0 kts 233°